Open Text Gross Margin 2010-2024 | OTEX

Current and historical gross margin for Open Text (OTEX) over the last 10 years. The current gross profit margin for Open Text as of March 31, 2024 is %.
Open Text Gross Margin Historical Data
Date TTM Revenue TTM Gross Profit Gross Margin
2024-03-31 $5.90B $4.27B 72.35%
2023-12-31 $5.70B $4.09B 71.73%
2023-09-30 $5.06B $3.59B 71.04%
2023-06-30 $4.49B $3.17B 70.66%
2023-03-31 $3.90B $2.74B 70.30%
2022-12-31 $3.53B $2.47B 69.97%
2022-09-30 $3.51B $2.45B 69.80%
2022-06-30 $3.49B $2.43B 69.62%
2022-03-31 $3.49B $2.42B 69.44%
2021-12-31 $3.44B $2.38B 69.38%
2021-09-30 $3.42B $2.37B 69.43%
2021-06-30 $3.39B $2.35B 69.44%
2021-03-31 $3.32B $2.30B 69.16%
2020-12-31 $3.30B $2.26B 68.32%
2020-09-30 $3.22B $2.19B 68.12%
2020-06-30 $3.11B $2.11B 67.66%
2020-03-31 $3.03B $2.05B 67.60%
2019-12-31 $2.94B $2.00B 68.04%
2019-09-30 $2.90B $1.97B 67.81%
2019-06-30 $2.87B $1.94B 67.57%
2019-03-31 $2.88B $1.94B 67.37%
2018-12-31 $2.84B $1.90B 66.85%
2018-09-30 $2.84B $1.89B 66.42%
2018-06-30 $2.82B $1.86B 66.18%
2018-03-31 $2.73B $1.80B 65.98%
2017-12-31 $2.63B $1.74B 66.03%
2017-09-30 $2.44B $1.62B 66.33%
2017-06-30 $2.29B $1.53B 66.71%
2017-03-31 $2.11B $1.42B 67.05%
2016-12-31 $1.96B $1.33B 67.96%
2016-09-30 $1.88B $1.28B 68.17%
2016-06-30 $1.83B $1.25B 68.49%
2016-03-31 $1.82B $1.25B 68.59%
2015-12-31 $1.83B $1.25B 68.10%
2015-09-30 $1.83B $1.24B 67.61%
2015-06-30 $1.85B $1.25B 67.62%
2015-03-31 $1.86B $1.26B 67.76%
2014-12-31 $1.86B $1.27B 68.10%
2014-09-30 $1.76B $1.20B 68.55%
2014-06-30 $1.63B $1.11B 68.55%
2014-03-31 $1.48B $1.00B 67.73%
2013-12-31 $1.37B $0.92B 66.93%
2013-09-30 $1.36B $0.89B 65.47%
2013-06-30 $1.36B $0.88B 64.34%
2013-03-31 $1.32B $0.85B 64.22%
2012-12-31 $1.28B $0.82B 64.18%
2012-09-30 $1.25B $0.81B 64.82%
2012-06-30 $1.21B $0.79B 65.45%
2012-03-31 $1.19B $0.78B 65.68%
2011-12-31 $1.16B $0.77B 66.38%
2011-09-30 $1.10B $0.74B 66.64%
2011-06-30 $1.03B $0.69B 67.05%
2011-03-31 $0.99B $0.67B 67.48%
2010-12-31 $0.94B $0.63B 67.56%
2010-09-30 $0.92B $0.62B 67.54%
2010-06-30 $0.91B $0.62B 67.54%
2010-03-31 $0.88B $0.59B 67.43%
2009-12-31 $0.85B $0.58B 67.45%
Sector Industry Market Cap Revenue
Computer and Technology Computer Software $8.406B $4.485B
Open Text Corporation is engaged in development of innovative intranet, extranet and e-Business applications. Since creating one of the first search engines to index the World Wide Web, the company has remained at the forefront of Internet-based technologies. Open Text solutions allow individuals, teams, organizations, and global trading communities to collaborate on projects, share ideas and accelerate innovation to the fastest possible speed. Open Text Corporation is headquartered in Waterloo, Canada.
Stock Name Country Market Cap PE Ratio
Microsoft (MSFT) United States $3306.261B 38.51
Oracle (ORCL) United States $394.391B 32.02
Salesforce (CRM) United States $248.122B 36.95
Adobe (ADBE) United States $242.101B 39.17
Intuit (INTU) United States $178.099B 55.50
Synopsys (SNPS) United States $90.142B 62.13
Cadence Design Systems (CDNS) United States $77.093B 72.94
Autodesk (ADSK) United States $53.065B 48.38
Dassault Systemes SA (DASTY) France $49.857B 32.39
MicroStrategy (MSTR) United States $30.540B 0.00
ANSYS (ANSS) United States $27.943B 51.71
PTC (PTC) United States $21.279B 56.44
SS&C Technologies Holdings (SSNC) United States $16.746B 15.86
Manhattan Associates (MANH) United States $13.915B 68.90
Descartes Systems Group (DSGX) Canada $8.617B 72.09
Trend Micro (TMICY) Japan $6.589B 47.71
CommVault Systems (CVLT) United States $5.475B 88.72
Pegasystems (PEGA) United States $5.344B 47.26
ACI Worldwide (ACIW) United States $4.497B 21.54
Blackbaud (BLKB) United States $4.090B 35.21
Progress Software (PRGS) United States $2.395B 15.39
Sapiens (SPNS) Israel $2.262B 30.84
Verint Systems (VRNT) United States $2.141B 20.05
BlackBerry (BB) Canada $1.458B 0.00
PROS Holdings (PRO) United States $1.166B 0.00
Simulations Plus (SLP) United States $0.812B 60.55
Rand Worldwide (RWWI) United States $0.672B 0.00
Magic Software Enterprises (MGIC) Israel $0.571B 12.10
American Software (AMSWA) United States $0.327B 28.11
Canaan (CAN) China $0.303B 0.00
Rigetti Computing (RGTI) United States $0.193B 0.00
OptimizeRx (OPRX) United States $0.186B 0.00
Neonode (NEON) Sweden $0.046B 0.00
Icad Inc (ICAD) United States $0.035B 0.00
NetSol Technologies (NTWK) United States $0.034B 0.00
Wetouch Technology (WETH) $0.025B 0.00
Smith Micro Software (SMSI) United States $0.023B 0.00
Hanryu Holdings (HRYU) South Korea $0.014B 0.00
GSE Systems (GVP) United States $0.011B 0.00
SAP SE (SAP) Germany $0.000B 49.03